Flag for Russia Weather past 2 weeks in Kazan, Russia

Now
68 °F

Overcast.


Feels Like: 68 °F
Forecast: 57 / 80 °F
Wind: 8 mph from Northwest

Location: Kazan'

Current Time: Aug 20, 2014 at 5:21:19 PM

Latest Report: Aug 20, 2014 at 5:00 PM


Visibility: N/A

Pressure: 29.98 "Hg

Humidity: 83%

Dew point: 63 °F

Location of KazanLocation

Historic Weather in Kazan — Graph

°F

Kazan temperature yesterday

Maximum temperature yesterday: 70 °F (at 4:00 PM)
Minimum temperature yesterday: 61 °F (at 2:30 AM)
Average temperature yesterday: 64 °F

Past Weeks' High & Low Weather Summary

 TemperatureHumidityPressure
High95 °F (Aug 16, 2:30 PM)100% (Aug 10, 4:30 AM)30.07 "Hg (Aug 10, 4:30 AM)
Low55 °F (Aug 13, 2:30 AM)26% (Aug 9, 4:30 PM)29.56 "Hg (Aug 10, 2:30 AM)
Average72 °F68%29.83 "Hg
* Reported Aug 5 4:00 PM — Aug 20 4:00 PM, Kazan, Weather by CustomWeather, © 2014

Note: Actual official high and low records may vary slightly from our data, if they occured in-between our weather recording intervals... More about our weather records

Advertising

Kazan weather history for previous 24 hours

 ConditionsComfort  
Time TempWeatherWind HumidityBarometerVisibility
4:00 PM
Aug 20
68 °FOvercast.8 mph83%29.98 "HgN/A
3:30 PM68 °FOvercast.8 mph83%29.98 "HgN/A
3:00 PM68 °FOvercast.10 mph83%29.98 "HgN/A
2:30 PM68 °FOvercast.10 mph83%29.95 "HgN/A
2:00 PM70 °FOvercast.8 mph78%29.95 "HgN/A
1:30 PM70 °FOvercast.8 mph78%29.95 "HgN/A
1:00 PM68 °FOvercast.8 mph83%29.95 "HgN/A
12:30 PM68 °FLow clouds.6 mph83%29.95 "HgN/A
12:00 PM68 °FLow clouds.3 mph83%29.95 "HgN/A
11:30 AM66 °FLow clouds.3 mph88%29.95 "HgN/A
11:00 AM64 °FFog.3 mph94%29.95 "Hg2 mi
10:30 AM64 °FFog.3 mph94%29.95 "Hg3 mi
10:00 AM64 °FFog.3 mph94%29.95 "Hg3 mi
9:30 AM64 °FFog.3 mph94%29.95 "Hg3 mi
9:00 AM64 °FFog.3 mph94%29.95 "Hg3 mi
8:30 AM63 °FFog.3 mph100%29.95 "Hg3 mi
8:00 AM63 °FFog.3 mph100%29.95 "Hg2 mi
7:30 AM63 °FFog.3 mph94%29.95 "Hg2 mi
7:00 AM63 °FFog.3 mph94%29.92 "Hg2 mi
6:30 AM63 °FFog.3 mph94%29.92 "Hg2 mi
6:00 AM63 °FFog.3 mph94%29.92 "Hg3 mi
5:30 AM61 °FFog.6 mph100%29.92 "Hg3 mi
5:00 AM63 °FFog.3 mph94%29.95 "Hg3 mi
4:30 AM63 °FPartly cloudy.3 mph94%29.95 "HgN/A
4:00 AM61 °FSprinkles. Partly cloudy.6 mph100%29.95 "HgN/A
3:30 AM63 °FSprinkles. Partly cloudy.3 mph94%29.95 "HgN/A
3:00 AM63 °FPartly cloudy.6 mph88%29.95 "HgN/A
2:30 AM63 °FPartly cloudy.6 mph88%29.95 "HgN/A
2:00 AM63 °FPartly cloudy.3 mph88%29.98 "HgN/A
1:30 AM63 °FPassing clouds.8 mph88%29.95 "HgN/A
1:00 AM63 °FPassing clouds.6 mph88%29.98 "HgN/A
12:30 AM63 °FPartly cloudy.3 mph88%29.98 "HgN/A
12:00 AM63 °FPartly cloudy.3 mph88%29.98 "HgN/A
11:30 PM
Aug 19
63 °FPartly cloudy.6 mph88%29.98 "HgN/A
11:00 PM64 °FClear.8 mph83%29.98 "Hg10 mi
10:30 PM64 °FClear.6 mph83%30.01 "Hg10 mi
10:00 PM64 °FClear.8 mph83%30.01 "Hg10 mi
9:30 PM64 °FClear.8 mph83%30.01 "Hg10 mi
9:00 PM64 °FSunny.10 mph83%30.01 "Hg10 mi
8:30 PM64 °FSunny.8 mph83%30.01 "Hg10 mi
8:00 PM66 °FSunny.8 mph78%30.04 "Hg10 mi
7:30 PM66 °FBroken clouds.6 mph78%30.01 "HgN/A
7:00 PM66 °FBroken clouds.8 mph78%30.01 "HgN/A
6:30 PM66 °FBroken clouds.8 mph78%30.04 "HgN/A
6:00 PM68 °FBroken clouds.10 mph73%30.04 "HgN/A
5:30 PM68 °FBroken clouds.8 mph73%30.04 "HgN/A
5:00 PM68 °FBroken clouds.10 mph69%30.04 "HgN/A
Weather by CustomWeather, © 2014

See weather overviewHow to use our weather pages